Location: Voyageurs National Park
(48.5020°N, 92.9292°W)
Time: 20:16:05
(UTC-05:00)

IDEFIX/ARIANE 42P - Pass Details

Date: 19 January 2018
Orbit: 786 x 802 km, 98.3° (Epoch: 26 May)

Event Time Altitude Azimuth Distance (km) Brightness Sun altitude
Rises 06:00:13 0° 11° (N) 3,323 5.8 -18.7°
Reaches altitude 10° 06:02:35 10° 8° (N) 2,390 5.0 -18.3°
Maximum altitude 06:07:47 61° 289° (WNW) 913 2.6 -17.4°
Drops below altitude 10° 06:12:57 10° 211° (SSW) 2,375 4.9 -16.6°
Sets 06:15:17 0° 207° (SSW) 3,300 5.6 -16.2°
